Location: Unspecified
(0.0000°N, 0.0000°E)
Time: 18:42:29
(UTC+00:00)

Hubble Space Telescope - Pass Details

Date: 13 January 2026
Orbit: 479 x 481 km, 28.5° (Epoch: 19 January)

Event Time Altitude Azimuth Distance (km) Brightness Sun altitude
Rises 20:27:09 0° 249° (WSW) 2,521 5.3 -31.9°
Reaches altitude 10° 20:29:24 10° 255° (WSW) 1,642 4.1 -32.4°
Enters shadow 20:30:05 14° 259° (WSW) 1,390 3.6 -32.6°
